ITY1642 LIBR-LIML

Flight info

Callsign ITY1642
Flight time 1h 22m
Altitude 19000
Route FASAN M742 LUXIL/N0451F360 DCT DIVKU/N0452F380 DCT LOMED/N0460F300 DCT RUXOL DCT KALIK
Aircraft A320/M-SDE3FGHIRWY/LB1

Departure

Time 2026-04-14 11:57
Airport Brindisi Airport (LIBR)

Arrival

Time 2026-04-14 13:19
Airport Milano Linate Airport (LIML)
Time Latitude Longitude Altitude Speed Heading
2026-04-14 11:38 40.65757 17.94042 40 ft 0 kts 323°
2026-04-14 11:45 40.65742 17.94057 41 ft 5 kts 323°
2026-04-14 11:45 40.65715 17.94083 39 ft 5 kts 325°
2026-04-14 11:46 40.65690 17.94104 40 ft 3 kts 339°
2026-04-14 11:46 40.65677 17.94109 40 ft 2 kts 13°
2026-04-14 11:46 40.65667 17.94104 41 ft 2 kts 45°
2026-04-14 11:46 40.65660 17.94093 40 ft 2 kts 51°
2026-04-14 11:47 40.65660 17.94094 39 ft 0 kts 51°
2026-04-14 11:48 40.65662 17.94097 40 ft 3 kts 52°
2026-04-14 11:48 40.65686 17.94134 39 ft 6 kts 48°
2026-04-14 11:48 40.65716 17.94176 40 ft 7 kts 46°
2026-04-14 11:49 40.65751 17.94226 38 ft 8 kts 50°
2026-04-14 11:49 40.65788 17.94287 37 ft 9 kts 52°
2026-04-14 11:49 40.65826 17.94357 35 ft 10 kts 53°
2026-04-14 11:49 40.65869 17.94432 34 ft 10 kts 52°
2026-04-14 11:50 40.65914 17.94507 33 ft 10 kts 52°
2026-04-14 11:50 40.65956 17.94579 33 ft 9 kts 52°
2026-04-14 11:50 40.65994 17.94643 33 ft 8 kts 52°
2026-04-14 11:51 40.66075 17.94689 31 ft 6 kts 323°
2026-04-14 11:51 40.66101 17.94654 33 ft 5 kts 315°
2026-04-14 11:51 40.66120 17.94629 33 ft 3 kts 315°
2026-04-14 11:51 40.66132 17.94613 33 ft 2 kts 315°
2026-04-14 11:52 40.66138 17.94606 34 ft 1 kts 315°
2026-04-14 11:52 40.66146 17.94595 34 ft 2 kts 314°
2026-04-14 11:52 40.66155 17.94583 34 ft 2 kts 314°
2026-04-14 11:52 40.66165 17.94569 32 ft 3 kts 314°
2026-04-14 11:53 40.66201 17.94523 34 ft 11 kts 317°
2026-04-14 11:53 40.66277 17.94432 34 ft 19 kts 317°
2026-04-14 11:53 40.66388 17.94297 35 ft 26 kts 318°
2026-04-14 11:53 40.66535 17.94115 36 ft 32 kts 315°
2026-04-14 11:54 40.66715 17.93898 36 ft 38 kts 321°
2026-04-14 11:54 40.66917 17.93662 36 ft 39 kts 316°
2026-04-14 11:54 40.67111 17.93407 37 ft 39 kts 315°
2026-04-14 11:54 40.67311 17.93163 38 ft 39 kts 317°
2026-04-14 11:55 40.67509 17.92918 38 ft 34 kts 319°
2026-04-14 11:55 40.67629 17.92773 38 ft 17 kts 287°
2026-04-14 11:55 40.67590 17.92637 38 ft 17 kts 236°
2026-04-14 11:55 40.67521 17.92635 37 ft 11 kts 132°
2026-04-14 11:56 40.67465 17.92707 37 ft 31 kts 137°
2026-04-14 11:56 40.67106 17.93139 38 ft 104 kts 137°
2026-04-14 11:56 40.66430 17.93966 43 ft 158 kts 138°
2026-04-14 11:56 40.65619 17.94995 630 ft 164 kts 140°
2026-04-14 11:57 40.64823 17.96076 1355 ft 170 kts 136°
2026-04-14 11:57 40.63920 17.97202 1842 ft 189 kts 141°
2026-04-14 11:57 40.62873 17.98380 2320 ft 209 kts 142°
2026-04-14 11:57 40.61734 17.99653 3009 ft 218 kts 142°
2026-04-14 11:58 40.60597 18.01028 3786 ft 225 kts 134°
2026-04-14 11:58 40.59737 18.02787 4592 ft 235 kts 118°
2026-04-14 11:58 40.59297 18.04913 4931 ft 251 kts 100°
2026-04-14 11:58 40.59475 18.07325 5432 ft 277 kts 78°
2026-04-14 11:59 40.60339 18.09641 6342 ft 290 kts 57°
2026-04-14 11:59 40.61830 18.11485 7173 ft 301 kts 33°
2026-04-14 11:59 40.63804 18.12464 8028 ft 308 kts
2026-04-14 11:59 40.65936 18.12337 8899 ft 308 kts 342°
2026-04-14 12:00 40.67861 18.11167 9806 ft 305 kts 323°
2026-04-14 12:00 40.69658 18.09667 10671 ft 306 kts 322°
2026-04-14 12:00 40.71244 18.07758 11126 ft 317 kts 301°
2026-04-14 12:00 40.72199 18.05093 11374 ft 331 kts 279°
2026-04-14 12:01 40.72286 18.02027 11627 ft 343 kts 256°
2026-04-14 12:01 40.71412 17.99101 12212 ft 346 kts 235°
2026-04-14 12:01 40.69843 17.96941 12883 ft 349 kts 214°
2026-04-14 12:01 40.67655 17.95515 13609 ft 354 kts 204°
2026-04-14 12:02 40.65515 17.93910 14234 ft 357 kts 219°
2026-04-14 12:02 40.63959 17.91374 14861 ft 362 kts 244°
2026-04-14 12:02 40.63387 17.88136 15498 ft 370 kts 268°
2026-04-14 12:02 40.63940 17.84804 16134 ft 381 kts 292°
2026-04-14 12:03 40.65542 17.81993 16792 ft 393 kts 316°
2026-04-14 12:03 40.67874 17.80039 17445 ft 403 kts 332°
2026-04-14 12:03 40.70480 17.78627 18080 ft 407 kts 332°
2026-04-14 12:03 40.72839 17.76625 18631 ft 403 kts 313°
2026-04-14 12:04 40.74471 17.73719 18897 ft 397 kts 295°
2026-04-14 12:04 40.75724 17.70447 18961 ft 406 kts 293°
2026-04-14 12:04 40.76965 17.67015 18974 ft 423 kts 292°
2026-04-14 12:04 40.78246 17.63471 18973 ft 431 kts 293°
2026-04-14 12:05 40.79572 17.59916 18970 ft 433 kts 294°
2026-04-14 12:05 40.80942 17.56369 18972 ft 434 kts 294°
2026-04-14 12:05 40.82336 17.52841 18975 ft 434 kts 295°
2026-04-14 12:05 40.83744 17.49316 18970 ft 434 kts 295°
2026-04-14 12:06 40.84973 17.45697 18974 ft 432 kts 287°
2026-04-14 12:06 40.85719 17.41875 18974 ft 429 kts 277°
2026-04-14 12:06 40.85944 17.37960 18967 ft 427 kts 267°
2026-04-14 12:06 40.85708 17.34061 18961 ft 425 kts 262°
2026-04-14 12:07 40.85390 17.30174 18968 ft 425 kts 262°
2026-04-14 12:07 40.85083 17.26332 18963 ft 425 kts 262°
2026-04-14 12:07 40.84774 17.22401 18960 ft 425 kts 262°
2026-04-14 12:07 40.84469 17.18513 18967 ft 425 kts 262°
2026-04-14 12:08 40.84163 17.14633 18964 ft 425 kts 262°
2026-04-14 12:08 40.83856 17.10795 18964 ft 425 kts 262°
2026-04-14 12:08 40.83543 17.06911 18964 ft 425 kts 262°
2026-04-14 12:08 40.83224 17.03028 18965 ft 426 kts 262°
2026-04-14 12:09 40.82905 16.99138 18966 ft 426 kts 262°
2026-04-14 12:09 40.82606 16.95249 18960 ft 427 kts 265°
2026-04-14 12:09 40.82706 16.91327 18962 ft 430 kts 275°
2026-04-14 12:09 40.83364 16.87472 18958 ft 433 kts 285°
2026-04-14 12:10 40.84572 16.83812 18953 ft 437 kts 297°
2026-04-14 12:10 40.86317 16.80502 18953 ft 441 kts 308°
2026-04-14 12:10 40.87661 16.78490 18958 ft 442 kts 308°
2026-04-14 12:10 40.88053 16.77907 18952 ft 442 kts 309°
2026-04-14 12:11 40.89496 16.74661 18895 ft 433 kts 288°
2026-04-14 12:11 40.90552 16.70910 18907 ft 438 kts 293°
2026-04-14 12:11 40.92339 16.67625 18920 ft 445 kts 313°
2026-04-14 12:11 40.94712 16.64986 18932 ft 448 kts 320°
2026-04-14 12:12 40.97189 16.62482 18931 ft 448 kts 320°
2026-04-14 12:12 40.99667 16.59977 18936 ft 448 kts 320°
2026-04-14 12:12 41.02001 16.57266 18934 ft 445 kts 314°
2026-04-14 12:12 41.04152 16.54321 18937 ft 444 kts 310°
2026-04-14 12:13 41.06181 16.51237 18936 ft 443 kts 308°
2026-04-14 12:13 41.08121 16.48121 18937 ft 443 kts 307°
2026-04-14 12:13 41.10066 16.44964 18939 ft 443 kts 307°
2026-04-14 12:13 41.12037 16.41817 18940 ft 443 kts 308°
2026-04-14 12:14 41.14032 16.38709 18937 ft 443 kts 309°
2026-04-14 12:14 41.16056 16.35624 18936 ft 443 kts 309°
2026-04-14 12:14 41.18096 16.32554 18928 ft 443 kts 309°
2026-04-14 12:14 41.20144 16.29483 18924 ft 444 kts 309°
2026-04-14 12:15 41.22186 16.26412 18924 ft 444 kts 309°
2026-04-14 12:15 41.24224 16.23331 18922 ft 444 kts 309°
2026-04-14 12:15 41.26258 16.20241 18921 ft 444 kts 309°
2026-04-14 12:15 41.28286 16.17147 18922 ft 444 kts 309°
2026-04-14 12:16 41.30307 16.14056 18921 ft 444 kts 309°
2026-04-14 12:16 41.32341 16.10937 18921 ft 444 kts 309°
2026-04-14 12:16 41.34366 16.07832 18920 ft 444 kts 309°
2026-04-14 12:16 41.36395 16.04717 18919 ft 444 kts 309°
2026-04-14 12:17 41.37488 16.03037 18918 ft 444 kts 309°
2026-04-14 12:17 41.39510 15.99921 18919 ft 445 kts 309°
2026-04-14 12:17 41.41514 15.96838 18920 ft 445 kts 309°
2026-04-14 12:17 41.43571 15.93680 18921 ft 445 kts 309°
2026-04-14 12:18 41.45592 15.90571 18917 ft 445 kts 309°
2026-04-14 12:18 41.47592 15.87488 18916 ft 445 kts 309°
2026-04-14 12:18 41.49613 15.84369 18913 ft 445 kts 308°
2026-04-14 12:18 41.51581 15.81184 18914 ft 445 kts 307°
2026-04-14 12:19 41.53479 15.77924 18912 ft 444 kts 305°
2026-04-14 12:19 41.55329 15.74613 18913 ft 444 kts 304°
2026-04-14 12:19 41.57155 15.71282 18915 ft 444 kts 304°
2026-04-14 12:19 41.58976 15.67952 18915 ft 445 kts 304°
2026-04-14 12:20 41.60808 15.64626 18913 ft 445 kts 304°
2026-04-14 12:20 41.62658 15.61303 18914 ft 445 kts 305°
2026-04-14 12:20 41.64517 15.57989 18917 ft 446 kts 305°
2026-04-14 12:20 41.66382 15.54681 18917 ft 446 kts 305°
2026-04-14 12:21 41.68248 15.51366 18922 ft 446 kts 305°
2026-04-14 12:21 41.70111 15.48048 18920 ft 446 kts 305°
2026-04-14 12:21 41.71973 15.44725 18923 ft 446 kts 305°
2026-04-14 12:21 41.73833 15.41395 18924 ft 446 kts 304°
2026-04-14 12:22 41.75693 15.38057 18925 ft 447 kts 304°
2026-04-14 12:22 41.77547 15.34725 18923 ft 447 kts 304°
2026-04-14 12:22 41.79405 15.31386 18923 ft 447 kts 304°
2026-04-14 12:22 41.81260 15.28046 18928 ft 447 kts 304°
2026-04-14 12:23 41.83099 15.24738 18925 ft 447 kts 304°
2026-04-14 12:23 41.84957 15.21394 18925 ft 447 kts 304°
2026-04-14 12:23 41.86811 15.18055 18926 ft 447 kts 304°
2026-04-14 12:23 41.88663 15.14711 18928 ft 446 kts 304°
2026-04-14 12:24 41.90516 15.11355 18929 ft 446 kts 304°
2026-04-14 12:24 41.92360 15.08008 18931 ft 446 kts 304°
2026-04-14 12:24 41.94207 15.04654 18934 ft 446 kts 304°
2026-04-14 12:24 41.96049 15.01315 18931 ft 446 kts 304°
2026-04-14 12:25 41.97897 14.97967 18934 ft 445 kts 304°
2026-04-14 12:25 41.99740 14.94619 18935 ft 445 kts 304°
2026-04-14 12:25 42.01575 14.91277 18938 ft 445 kts 304°
2026-04-14 12:25 42.03415 14.87919 18937 ft 444 kts 304°
2026-04-14 12:26 42.05246 14.84573 18937 ft 444 kts 304°
2026-04-14 12:26 42.07076 14.81228 18938 ft 444 kts 304°
2026-04-14 12:26 42.08910 14.77877 18935 ft 444 kts 304°
2026-04-14 12:26 42.10735 14.74535 18934 ft 444 kts 304°
2026-04-14 12:27 42.12559 14.71192 18935 ft 444 kts 304°
2026-04-14 12:27 42.14388 14.67836 18936 ft 444 kts 304°
2026-04-14 12:27 42.16214 14.64482 18933 ft 444 kts 304°
2026-04-14 12:27 42.18035 14.61131 18930 ft 444 kts 304°
2026-04-14 12:28 42.19859 14.57772 18931 ft 443 kts 304°
2026-04-14 12:28 42.21657 14.54461 18937 ft 444 kts 304°
2026-04-14 12:28 42.23481 14.51101 18936 ft 443 kts 304°
2026-04-14 12:28 42.25299 14.47746 18936 ft 443 kts 304°
2026-04-14 12:29 42.27118 14.44381 18937 ft 443 kts 304°
2026-04-14 12:29 42.28930 14.41027 18935 ft 443 kts 304°
2026-04-14 12:29 42.30749 14.37657 18938 ft 443 kts 304°
2026-04-14 12:29 42.32560 14.34292 18938 ft 443 kts 304°
2026-04-14 12:30 42.34376 14.30918 18940 ft 443 kts 304°
2026-04-14 12:30 42.36191 14.27549 18941 ft 443 kts 304°
2026-04-14 12:30 42.38004 14.24177 18941 ft 443 kts 304°
2026-04-14 12:30 42.39811 14.20805 18943 ft 444 kts 303°
2026-04-14 12:31 42.41622 14.17420 18943 ft 444 kts 303°
2026-04-14 12:31 42.43428 14.14048 18949 ft 444 kts 303°
2026-04-14 12:31 42.45242 14.10658 18949 ft 443 kts 303°
2026-04-14 12:31 42.47046 14.07280 18949 ft 443 kts 303°
2026-04-14 12:32 42.48851 14.03899 18945 ft 443 kts 303°
2026-04-14 12:32 42.50659 14.00509 18943 ft 443 kts 303°
2026-04-14 12:32 42.52463 13.97121 18943 ft 443 kts 303°
2026-04-14 12:32 42.54246 13.93770 18939 ft 443 kts 303°
2026-04-14 12:33 42.56048 13.90380 18933 ft 443 kts 303°
2026-04-14 12:33 42.57850 13.86986 18930 ft 443 kts 303°
2026-04-14 12:33 42.59650 13.83591 18931 ft 443 kts 303°
2026-04-14 12:33 42.61444 13.80197 18928 ft 443 kts 303°
2026-04-14 12:34 42.63236 13.76803 18922 ft 442 kts 303°
2026-04-14 12:34 42.65029 13.73400 18924 ft 442 kts 303°
2026-04-14 12:34 42.66818 13.70000 18921 ft 442 kts 303°
2026-04-14 12:34 42.68610 13.66595 18921 ft 442 kts 303°
2026-04-14 12:35 42.70400 13.63197 18916 ft 442 kts 303°
2026-04-14 12:35 42.72188 13.59797 18915 ft 443 kts 303°
2026-04-14 12:35 42.73980 13.56385 18913 ft 442 kts 303°
2026-04-14 12:35 42.75768 13.52978 18907 ft 442 kts 303°
2026-04-14 12:36 42.77554 13.49568 18909 ft 443 kts 303°
2026-04-14 12:36 42.79343 13.46156 18908 ft 443 kts 303°
2026-04-14 12:36 42.81133 13.42738 18904 ft 443 kts 303°
2026-04-14 12:36 42.82922 13.39315 18905 ft 444 kts 303°
2026-04-14 12:37 42.84713 13.35886 18908 ft 444 kts 303°
2026-04-14 12:37 42.86507 13.32456 18902 ft 444 kts 303°
2026-04-14 12:37 42.88297 13.29026 18903 ft 444 kts 303°
2026-04-14 12:37 42.90083 13.25591 18909 ft 444 kts 303°
2026-04-14 12:38 42.93643 13.18708 18902 ft 444 kts 303°
2026-04-14 12:38 42.95403 13.15300 18909 ft 445 kts 303°
2026-04-14 12:38 42.97185 13.11852 18910 ft 445 kts 303°
2026-04-14 12:39 42.98968 13.08395 18900 ft 445 kts 303°
2026-04-14 12:39 43.00752 13.04935 18904 ft 445 kts 303°
2026-04-14 12:39 43.02538 13.01476 18908 ft 445 kts 303°
2026-04-14 12:39 43.04320 12.98021 18902 ft 445 kts 303°
2026-04-14 12:40 43.06106 12.94554 18908 ft 446 kts 303°
2026-04-14 12:40 43.07884 12.91093 18908 ft 446 kts 303°
2026-04-14 12:40 43.09669 12.87610 18908 ft 446 kts 303°
2026-04-14 12:40 43.11446 12.84135 18912 ft 447 kts 303°
2026-04-14 12:41 43.13231 12.80643 18916 ft 447 kts 303°
2026-04-14 12:41 43.15011 12.77163 18913 ft 446 kts 303°
2026-04-14 12:41 43.16790 12.73681 18918 ft 447 kts 303°
2026-04-14 12:41 43.18572 12.70188 18920 ft 447 kts 303°
2026-04-14 12:42 43.20350 12.66700 18919 ft 447 kts 303°
2026-04-14 12:42 43.22129 12.63210 18918 ft 447 kts 303°
2026-04-14 12:42 43.23881 12.59767 18920 ft 447 kts 303°
2026-04-14 12:42 43.25660 12.56263 18924 ft 447 kts 303°
2026-04-14 12:43 43.27437 12.52765 18922 ft 447 kts 303°
2026-04-14 12:43 43.29213 12.49263 18930 ft 447 kts 303°
2026-04-14 12:43 43.30986 12.45759 18924 ft 447 kts 303°
2026-04-14 12:43 43.32759 12.42251 18932 ft 447 kts 303°
2026-04-14 12:44 43.34530 12.38745 18929 ft 447 kts 303°
2026-04-14 12:44 43.35706 12.36412 18925 ft 447 kts 303°
2026-04-14 12:44 43.37471 12.32907 18928 ft 446 kts 303°
2026-04-14 12:45 43.41000 12.25880 18932 ft 446 kts 302°
2026-04-14 12:45 43.42761 12.22374 18934 ft 446 kts 303°
2026-04-14 12:45 43.44522 12.18863 18921 ft 446 kts 303°
2026-04-14 12:45 43.46284 12.15347 18919 ft 446 kts 303°
2026-04-14 12:46 43.48042 12.11836 18916 ft 446 kts 302°
2026-04-14 12:46 43.49804 12.08311 18920 ft 446 kts 302°
2026-04-14 12:46 43.51561 12.04793 18923 ft 446 kts 302°
2026-04-14 12:46 43.53316 12.01270 18930 ft 446 kts 302°
2026-04-14 12:47 43.55068 11.97745 18929 ft 446 kts 302°
2026-04-14 12:47 43.56823 11.94206 18936 ft 447 kts 302°
2026-04-14 12:47 43.58578 11.90670 18941 ft 447 kts 302°
2026-04-14 12:47 43.60331 11.87137 18944 ft 446 kts 302°
2026-04-14 12:48 43.62083 11.83601 18936 ft 446 kts 302°
2026-04-14 12:48 43.63835 11.80065 18936 ft 446 kts 302°
2026-04-14 12:48 43.65586 11.76528 18942 ft 446 kts 302°
2026-04-14 12:48 43.67335 11.72989 18938 ft 446 kts 302°
2026-04-14 12:49 43.69081 11.69444 18941 ft 446 kts 302°
2026-04-14 12:49 43.70820 11.65900 18939 ft 445 kts 302°
2026-04-14 12:49 43.72560 11.62353 18939 ft 445 kts 302°
2026-04-14 12:49 43.74300 11.58811 18936 ft 445 kts 302°
2026-04-14 12:50 43.76039 11.55278 18938 ft 445 kts 303°
2026-04-14 12:50 43.79522 11.48187 18947 ft 446 kts 302°
2026-04-14 12:50 43.81242 11.44664 18942 ft 446 kts 302°
2026-04-14 12:51 43.82971 11.41117 18939 ft 445 kts 302°
2026-04-14 12:51 43.84704 11.37559 18943 ft 445 kts 302°
2026-04-14 12:51 43.86436 11.34000 18946 ft 446 kts 302°
2026-04-14 12:51 43.88175 11.30425 18944 ft 446 kts 302°
2026-04-14 12:52 43.89905 11.26865 18942 ft 445 kts 302°
2026-04-14 12:52 43.91635 11.23305 18940 ft 445 kts 302°
2026-04-14 12:52 43.93363 11.19745 18938 ft 445 kts 302°
2026-04-14 12:52 43.95091 11.16175 18938 ft 445 kts 302°
2026-04-14 12:53 43.96814 11.12610 18939 ft 446 kts 302°
2026-04-14 12:53 43.98537 11.09034 18941 ft 446 kts 302°
2026-04-14 12:53 44.00265 11.05444 18947 ft 446 kts 302°
2026-04-14 12:53 44.01930 11.01805 18945 ft 446 kts 297°
2026-04-14 12:54 44.03213 10.97899 18959 ft 444 kts 288°
2026-04-14 12:54 44.04131 10.93801 18963 ft 444 kts 285°
2026-04-14 12:54 44.05016 10.89696 18969 ft 444 kts 285°
2026-04-14 12:54 44.05905 10.85581 18979 ft 444 kts 285°
2026-04-14 12:55 44.06793 10.81470 18984 ft 444 kts 285°
2026-04-14 12:55 44.07680 10.77358 18985 ft 444 kts 285°
2026-04-14 12:55 44.08563 10.73249 18982 ft 443 kts 285°
2026-04-14 12:55 44.09442 10.69138 18984 ft 444 kts 285°
2026-04-14 12:56 44.10319 10.65022 18981 ft 444 kts 285°
2026-04-14 12:56 44.11270 10.60934 18982 ft 445 kts 291°
2026-04-14 12:56 44.12634 10.57063 18980 ft 446 kts 300°
2026-04-14 12:56 44.14311 10.53507 18985 ft 446 kts 303°
2026-04-14 12:57 44.16045 10.49909 18985 ft 447 kts 303°
2026-04-14 12:57 44.17756 10.46342 18864 ft 437 kts 303°
2026-04-14 12:57 44.19423 10.42850 18271 ft 430 kts 303°
2026-04-14 12:57 44.21070 10.39385 17530 ft 426 kts 303°
2026-04-14 12:58 44.22697 10.35958 16833 ft 422 kts 303°
2026-04-14 12:58 44.24311 10.32553 16166 ft 418 kts 303°
2026-04-14 12:58 44.25904 10.29194 15538 ft 414 kts 303°
2026-04-14 12:58 44.27486 10.25859 14920 ft 410 kts 304°
2026-04-14 12:59 44.29054 10.22555 14312 ft 407 kts 304°
2026-04-14 12:59 44.30611 10.19275 13685 ft 403 kts 304°
2026-04-14 12:59 44.32154 10.16021 12999 ft 400 kts 304°
2026-04-14 12:59 44.33681 10.12800 12326 ft 396 kts 304°
2026-04-14 13:00 44.35197 10.09598 11662 ft 392 kts 304°
2026-04-14 13:00 44.36691 10.06427 10975 ft 389 kts 304°
2026-04-14 13:00 44.38148 10.03325 10321 ft 385 kts 304°
2026-04-14 13:00 44.39614 10.00196 10042 ft 385 kts 304°
2026-04-14 13:01 44.41058 9.97116 9952 ft 369 kts 304°
2026-04-14 13:01 44.42426 9.94206 9968 ft 347 kts 304°
2026-04-14 13:01 44.43713 9.91465 9972 ft 327 kts 304°
2026-04-14 13:01 44.44926 9.88876 9973 ft 310 kts 305°
2026-04-14 13:02 44.46084 9.86401 9972 ft 300 kts 305°
2026-04-14 13:02 44.47227 9.83969 9976 ft 299 kts 306°
2026-04-14 13:02 44.48402 9.81568 9980 ft 299 kts 307°
2026-04-14 13:02 44.49596 9.79187 9979 ft 298 kts 307°
2026-04-14 13:03 44.50794 9.76816 9980 ft 298 kts 307°
2026-04-14 13:03 44.51993 9.74444 9974 ft 298 kts 308°
2026-04-14 13:03 44.53189 9.72070 9972 ft 298 kts 308°
2026-04-14 13:03 44.54382 9.69692 9973 ft 298 kts 307°
2026-04-14 13:04 44.55573 9.67311 9979 ft 298 kts 308°
2026-04-14 13:04 44.56760 9.64927 9975 ft 297 kts 308°
2026-04-14 13:04 44.57942 9.62545 9976 ft 298 kts 307°
2026-04-14 13:04 44.59127 9.60153 9980 ft 298 kts 308°
2026-04-14 13:05 44.60306 9.57770 9975 ft 298 kts 307°
2026-04-14 13:05 44.61486 9.55377 9979 ft 298 kts 307°
2026-04-14 13:05 44.62661 9.52996 9977 ft 298 kts 307°
2026-04-14 13:05 44.64026 9.50844 9983 ft 293 kts 326°
2026-04-14 13:06 44.65766 9.49544 9803 ft 285 kts 344°
2026-04-14 13:06 44.67657 9.48724 9407 ft 284 kts 347°
2026-04-14 13:06 44.69545 9.47934 9071 ft 282 kts 347°
2026-04-14 13:06 44.71416 9.47156 8711 ft 280 kts 346°
2026-04-14 13:07 44.73280 9.46377 8333 ft 278 kts 347°
2026-04-14 13:07 44.75132 9.45597 7939 ft 276 kts 347°
2026-04-14 13:07 44.76972 9.44820 7499 ft 275 kts 347°
2026-04-14 13:07 44.78793 9.44048 7078 ft 273 kts 347°
2026-04-14 13:08 44.80613 9.43273 6640 ft 273 kts 346°
2026-04-14 13:08 44.82430 9.42499 6223 ft 273 kts 347°
2026-04-14 13:08 44.84245 9.41728 5744 ft 271 kts 347°
2026-04-14 13:08 44.86037 9.40965 5230 ft 268 kts 347°
2026-04-14 13:09 44.87828 9.40206 5014 ft 270 kts 346°
2026-04-14 13:09 44.89635 9.39439 4999 ft 272 kts 347°
2026-04-14 13:09 44.91449 9.38668 4999 ft 271 kts 347°
2026-04-14 13:09 44.93249 9.37901 5002 ft 270 kts 347°
2026-04-14 13:10 44.95056 9.37131 4998 ft 271 kts 347°
2026-04-14 13:10 44.96863 9.36361 5001 ft 272 kts 347°
2026-04-14 13:10 44.98676 9.35586 4962 ft 271 kts 347°
2026-04-14 13:10 45.00477 9.34816 4535 ft 270 kts 347°
2026-04-14 13:11 45.02236 9.34061 4378 ft 258 kts 347°
2026-04-14 13:11 45.03908 9.33338 4246 ft 246 kts 347°
2026-04-14 13:11 45.05507 9.32648 4116 ft 236 kts 347°
2026-04-14 13:11 45.07025 9.31996 3986 ft 226 kts 347°
2026-04-14 13:12 45.08523 9.31567 3787 ft 216 kts 360°
2026-04-14 13:12 45.10014 9.31420 3518 ft 214 kts 359°
2026-04-14 13:12 45.11490 9.31266 3253 ft 213 kts 358°
2026-04-14 13:12 45.12965 9.31107 3056 ft 210 kts 358°
2026-04-14 13:13 45.14429 9.30949 2994 ft 211 kts 358°
2026-04-14 13:13 45.15902 9.30789 3010 ft 212 kts 358°
2026-04-14 13:13 45.17377 9.30629 3011 ft 213 kts 358°
2026-04-14 13:13 45.18850 9.30469 3008 ft 212 kts 358°
2026-04-14 13:14 45.20330 9.30308 3010 ft 213 kts 357°
2026-04-14 13:14 45.21806 9.30147 3020 ft 213 kts 357°
2026-04-14 13:14 45.23272 9.29987 3012 ft 206 kts 357°
2026-04-14 13:14 45.24666 9.29836 3012 ft 197 kts 358°
2026-04-14 13:15 45.26018 9.29692 3024 ft 193 kts 358°
2026-04-14 13:15 45.27358 9.29548 3025 ft 193 kts 358°
2026-04-14 13:15 45.28680 9.29407 3020 ft 192 kts 357°
2026-04-14 13:15 45.30028 9.29263 2965 ft 192 kts 357°
2026-04-14 13:16 45.31346 9.29122 2764 ft 192 kts 357°
2026-04-14 13:16 45.32651 9.28981 2559 ft 182 kts 357°
2026-04-14 13:16 45.33887 9.28848 2294 ft 173 kts 357°
2026-04-14 13:16 45.35058 9.28722 2053 ft 164 kts 357°
2026-04-14 13:17 45.36151 9.28605 1853 ft 153 kts 357°
2026-04-14 13:17 45.37176 9.28495 1681 ft 144 kts 356°
2026-04-14 13:17 45.38161 9.28389 1483 ft 140 kts 356°
2026-04-14 13:17 45.39128 9.28286 1268 ft 140 kts 356°
2026-04-14 13:18 45.40095 9.28199 1067 ft 140 kts 358°
2026-04-14 13:18 45.40732 9.28145 923 ft 139 kts 356°
2026-04-14 13:18 45.41690 9.27970 767 ft 139 kts 355°
2026-04-14 13:18 45.42658 9.27898 540 ft 139 kts 357°
2026-04-14 13:19 45.43622 9.27822 367 ft 138 kts 356°
2026-04-14 13:19 45.44471 9.27718 356 ft 100 kts 354°
2026-04-14 13:19 45.44992 9.27661 362 ft 59 kts 356°
2026-04-14 13:19 45.45317 9.27665 360 ft 41 kts 18°
2026-04-14 13:20 45.45472 9.27818 360 ft 23 kts 17°
2026-04-14 13:20 45.45634 9.27819 361 ft 24 kts 359°
2026-04-14 13:20 45.45807 9.27817 361 ft 26 kts
2026-04-14 13:20 45.45905 9.27891 360 ft 15 kts 84°
2026-04-14 13:21 45.45910 9.28014 363 ft 10 kts 54°
2026-04-14 13:21 45.45971 9.28033 366 ft 6 kts
2026-04-14 13:21 45.45973 9.28033 366 ft 0 kts